[Date Prev][Date Next][Thread Prev][Thread Next] - [Date Index][Thread Index][Author Index]

MIR Keps 1-5-00




 Looks like The crew has been doing a LOT of orbit adj's - these keps will update
Yesterday keps by 2 min's !

MIR
1 16609U 86017A   00122.10775129  .00029136  00000-0  23428-3 0  5967
2 16609  51.6474 138.3126 0007046 153.5671 206.5689 15.70679023811758

Dave
N6CO
>

----
Via the sarex mailing list at AMSAT.ORG courtesy of AMSAT-NA.
To unsubscribe, send "unsubscribe sarex" to Majordomo@amsat.org



AMSAT Top AMSAT Home